Regional Weather Roundup
Issued by NWS Midland/Odessa, TX

Home | Current Version | Previous Version | Text Only | Print | Product List | Glossary On
Versions: 1 2 3 4 5 6 7 8 9 10 11 12 13 14 15 16 17 18 19 20 21 22 23 24 25 26 27 28 29 30 31 32 33 34 35 36 37 38 39 40 41 42 43 44 45 46 47 48 49 50
000
ASUS44 KMAF 202310
RWRMAF
MIDLAND AREA WEATHER ROUNDUP
NATIONAL WEATHER SERVICE MIDLAND TX
500 PM CST MON FEB 20 2017

...IN SOUTHWEST TEXAS AND SOUTHEAST NEW MEXICO...

CITY           SKY/WX    TMP DP  RH WIND       PRES   REMARKS
ALPINE         SUNNY     65  25  22 NW16      30.18R
ANDREWS        FAIR      69  24  18 N18G28    30.04R
ARTESIA        SUNNY     72  19  14 N13G24    30.08R
BIG SPRING     SUNNY     70  21  15 NW25G31   30.00R
CARLSBAD       SUNNY     72  22  15 N15G25    30.07R
DRYDEN           N/A     76  29  17 NW14G29   30.00R
FORT STOCKTON  MOSUNNY   71  28  20 NW18G26   30.06R
GUAD PASS      SUNNY     62  27  26 W21G28    30.19R
HOBBS          SUNNY     68  21  17 NW16G23   30.07R
MARFA          SUNNY     61  29  29 W21G30    30.17R
MIDLAND AIRPK  SUNNY     71  17  13 N17G28    30.02R
MIDLAND INTL   SUNNY     71  18  13 N22G35    30.02R
ODESSA         SUNNY     71  19  14 N18G31    30.03R
PECOS          SUNNY     72  27  18 NW16      30.07R
PRESIDIO       FAIR      71  30  21 W16G25    30.13R
SEMINOLE       MOSUNNY   69  24  18 NW17G25   30.05R
SNYDER         SUNNY     70  34  26 N25G32    29.94R
WINK           SUNNY     73  20  13 NW17G26   30.03R
$$
...OTHER STATIONS IN TEXAS...

CITY           SKY/WX    TMP DP  RH WIND       PRES   REMARKS
ABILENE        MOSUNNY   71  35  26 W12G20    29.89S
AMARILLO       SUNNY     67   8  10 N18G28    30.00R
AUSTIN         MOSUNNY   71  55  56 S7        29.93R
BROWNSVILLE    MOSUNNY   74  62  66 N10       29.97R
CORPUS CHRISTI MOSUNNY   70  62  76 NW3       29.96S
DALLAS FTW     MOSUNNY   68  55  63 S13       29.88F
DEL RIO        SUNNY     76  36  23 W13       29.96S
EL PASO        SUNNY     67  21  17 NW16      30.16S
HOUSTON INT    LGT RAIN  62  58  86 W8        29.96R
LUBBOCK        MOSUNNY   69   7   9 N21G31    30.00R
SAN ANGELO     MOSUNNY   73  36  25 W21G31    29.91S
SAN ANTONIO    MOSUNNY   74  47  38 S8        29.92F
WACO           MOSUNNY   65  58  78 S12       29.92F
WICHITA FALLS  NOT AVBL
$$
...OTHER LOCATIONS IN NEW MEXICO...

CITY           SKY/WX    TMP DP  RH WIND       PRES   REMARKS
ALAMAGORDO     SUNNY     64  27  24 NW14G21   30.17S
ALBUQUERQUE    SUNNY     60  25  26 NW15      30.19R
CANNON AFB     SUNNY     65  13  13 N12       30.06R
CLOVIS         SUNNY     64  23  20 NW13      30.06S
HOLLOMAN AFB   SUNNY     64  27  24 NW17      30.19S
ROSWELL        SUNNY     73  12   9 NW10        N/A
RUIDOSO        SUNNY     55  19  24 NW16      30.23S
SANTA FE       SUNNY     58  15  18 N16G24    30.18R
TRUTH OR CONSE SUNNY     62  27  26 S5        30.19S
TUCUMCARI      SUNNY     70  11  10 NW8       30.02S
$$



USA.gov is the U.S. government's official web portal to all federal, state and local government web resources and services.